User: anonymous   Login
Location: Kershaw
(34.5481°N, 80.5823°W)
Time: 12:24:48
(UTC+00:00)
Language:

Altair - Orbit

View from above orbital plane
View from above orbital plane
View from above satellite
View from above satellite

Ground track
Ground track

The orbit data is extracted from the following two-line orbital elements,

1    50U 60009B   22278.06619149 -.00000048  00000-0  34839-3 0  9990
2    50  47.2341  35.3801 0113444 307.8389  51.2178 12.20122283773186
Epoch (UTC): 05 October 2022 01:35:18
Eccentricity: 0.0113444
inclination: 47.2341°
perigee height: 1501 km
apogee height: 1682 km
right ascension of ascending node: 35.3801°
argument of perigee: 307.8389°
revolutions per day: 12.20122283
mean anomaly at epoch: 51.2178°
orbit number at epoch: 77318

The dashed part of the orbit path shows where the satellite is in the earth's shadow,  

DLR